[[{"header":{"parameterUnit":"m.s-1","parameterCategory":1,"la1":30.2991,"la2":30.254,"lo1":-89.0895,"lo2":-89.0444,"dy":0.0017,"dx":0.0017,"nx":28,"ny":28,"refTime":"2025-04-05T21:00:00:Z","depth":0,"parameterNumber":2,"parameterNumberName":"U-component_of_WINDS"},"data":[0,0,0,0,0,0,0,0,0,0,0,0,0,0,0,0,0,0,0,0,0,0,0,0,0,0,0,0,0,0,0,0,0,0,0,0,0,0,0,0,0,0,0,0,0,0,0,0,0,0,0,0,0,0,0,0,0,0,-3.0726,-3.0727,0,-3.0805,-3.0806,-3.0807,-3.0835,-3.0835,-3.0835,-3.0834,-3.0915,-3.0917,-3.092,0,0,0,0,0,0,0,0,0,0,0,0,0,-3.0602,-3.0604,-3.0726,-3.0727,-3.0728,-3.0805,-3.0806,-3.0807,-3.0835,-3.0835,-3.0835,-3.0834,-3.0914,-3.0917,-3.092,0,0,0,0,0,0,0,0,0,0,0,0,0,-3.0665,-3.0604,-3.0726,-3.0752,-3.0755,-3.0805,-3.0806,-3.0807,-3.0835,-3.0835,-3.0834,-3.0834,-3.0913,-3.0917,-3.092,-3.0951,0,0,-3.0931,-3.0933,0,0,0,0,0,0,0,0,-3.0662,-3.067,-3.0747,-3.075,-3.0753,-3.081,-3.0791,-3.0855,-3.0835,-3.0805,-3.0834,-3.0834,-3.088,-3.0887,-3.0902,-3.0955,-3.0958,-3.0932,-3.0934,-3.0935,-3.0936,0,0,0,0,0,0,0,-3.0657,-3.0667,-3.0757,-3.0748,-3.0752,-3.0759,-3.0768,-3.0804,-3.0844,-3.0807,-3.081,-3.0818,-3.0882,-3.0899,-3.0904,-3.0959,-3.0932,-3.0935,-3.0937,-3.0938,-3.1041,-3.1042,0,0,0,0,0,0,-3.0649,-3.0663,-3.0755,-3.076,-3.0706,-3.0762,-3.0772,-3.0792,-3.0844,-3.0851,-3.0819,-3.0819,-3.0893,-3.09,-3.0907,-3.0947,-3.0935,-3.0939,-3.0941,-3.1041,-3.1041,-3.1042,0,0,0,0,0,0,-3.0646,-3.0656,-3.0752,-3.0712,-3.0725,-3.0764,-3.0787,-3.0794,-3.0811,-3.0852,-3.0859,-3.0828,-3.0893,-3.0902,-3.094,-3.095,-3.094,-3.0944,-3.104,-3.1041,-3.1042,-3.1025,0,0,0,0,0,0,-3.0642,-3.0655,-3.0667,-3.0712,-3.0727,-3.0782,-3.0788,-3.0796,-3.0817,-3.0818,-3.0863,-3.087,-3.0893,-3.0934,-3.0943,-3.0955,-3.0946,-3.1039,-3.104,-3.1041,-3.1025,-3.1025,-3.1025,0,0,0,0,0,-3.0637,-3.0659,-3.0667,-3.0678,-3.0742,-3.0783,-3.0791,-3.0817,-3.0817,-3.083,-3.0857,-3.0869,-3.0947,-3.0938,-3.0948,-3.0961,-3.1039,-3.104,-3.1041,-3.1025,-3.1025,-3.1025,0,0,0,0,0,0,-3.0614,-3.0665,-3.0675,-3.0712,-3.0743,-3.0788,-3.0804,-3.0817,-3.0849,-3.0849,-3.088,-3.089,-3.0925,-3.0947,-3.0936,-3.0993,-3.0994,-3.0997,-3.0978,-3.0978,-3.0979,-3.0972,-3.0949,0,0,0,0,0,-3.0613,-3.0642,-3.0685,-3.0713,-3.0729,-3.0763,-3.0782,-3.08,-3.0833,-3.0846,-3.0876,-3.0908,-3.094,-3.0961,-3.0993,-3.1029,-3.1039,-3.1042,-3.1043,-3.1043,-3.1045,-3.1066,-3.1068,-3.1046,-3.1046,-3.1046,0,0,-3.0611,-3.0643,-3.0659,-3.071,-3.0736,-3.0765,-3.0774,-3.0805,-3.0827,-3.0851,-3.0888,-3.0912,-3.095,-3.0986,-3.1004,-3.1006,-3.1054,-3.1044,-3.1044,-3.1046,-3.1068,-3.107,-3.1071,-3.1047,-3.1047,-3.1047,0,0,-3.0623,-3.065,-3.0676,-3.0703,-3.0742,-3.0765,-3.0772,-3.0815,-3.0831,-3.0869,-3.0888,-3.0915,-3.097,-3.0996,-3.1017,-3.104,-3.1052,-3.105,-3.1051,-3.1071,-3.1073,-3.1074,-3.1083,-3.1085,-3.1052,-3.1052,-3.1052,0,-3.0616,-3.0661,-3.0688,-3.0718,-3.074,-3.0764,-3.0791,-3.0815,-3.0863,-3.0878,-3.0879,-3.0948,-3.0975,-3.1019,-3.1025,-3.1041,-3.1049,-3.1044,-3.107,-3.1072,-3.1074,-3.1082,-3.1085,-3.1051,-3.1051,-3.1051,-3.1051,0,-3.065,-3.0681,-3.0698,-3.0743,-3.0767,-3.0795,-3.0828,-3.0849,-3.0865,-3.0888,-3.0927,-3.0961,-3.1,-3.1012,-3.1027,-3.1058,-3.1058,-3.1064,-3.1065,-3.1075,-3.1083,-3.1087,-3.105,-3.1051,-3.1051,-3.1051,0,0,-3.0648,-3.0709,-3.0715,-3.0736,-3.0782,-3.0807,-3.0837,-3.0875,-3.0892,-3.0925,-3.0951,-3.0997,-3.1004,-3.1027,-3.1046,-3.1064,-3.108,-3.1068,-3.107,-3.1069,-3.1116,-3.1111,-3.1114,-3.1089,-3.109,-3.109,-3.1113,0,-3.0666,-3.072,-3.0746,-3.0788,-3.0818,-3.0841,-3.0867,-3.0898,-3.0921,-3.095,-3.0975,-3.1007,-3.1013,-3.1028,-3.1046,-3.1074,-3.109,-3.1073,-3.1114,-3.1115,-3.1102,-3.1118,-3.1112,-3.1132,-3.1116,-3.1117,-3.1117,0,-3.0693,-3.0726,-3.0771,-3.0814,-3.0827,-3.085,-3.0888,-3.0914,-3.0951,-3.0966,-3.0993,-3.1011,-3.1044,-3.1044,-3.109,-3.1077,-3.1096,-3.1112,-3.1114,-3.1118,-3.1116,-3.1122,-3.1138,-3.1141,-3.1123,-3.1122,-3.1122,0,-3.0687,-3.0742,-3.0776,-3.0794,-3.0845,-3.0861,-3.0883,-3.0918,-3.094,-3.0973,-3.0988,-3.1024,-3.1044,-3.1073,-3.1101,-3.1098,-3.1144,-3.1146,-3.1158,-3.1157,-3.1166,-3.1165,-3.1185,-3.1179,-3.1179,-3.1179,-3.1179,0,-3.0704,-3.073,-3.0774,-3.0795,-3.0826,-3.0857,-3.0887,-3.0911,-3.0943,-3.0969,-3.0992,-3.1016,-3.1053,-3.1082,-3.1104,-3.1139,-3.1148,-3.1162,-3.1167,-3.1159,-3.1157,-3.1171,-3.117,-3.1179,-3.1179,-3.1179,-3.1179,0,-3.0702,-3.0732,-3.0771,-3.0816,-3.0828,-3.0849,-3.0888,-3.091,-3.0934,-3.0968,-3.0977,-3.1016,-3.1051,-3.1083,-3.113,-3.1145,-3.118,-3.1188,-3.1168,-3.1171,-3.1181,-3.118,-3.121,-3.1216,-3.1206,-3.1206,-3.1206,0,-3.071,-3.0731,-3.0779,-3.0798,-3.0819,-3.085,-3.0873,-3.0904,-3.0926,-3.0969,-3.0986,-3.1023,-3.1055,-3.1111,-3.1143,-3.1179,-3.1187,-3.1196,-3.1193,-3.1184,-3.1187,-3.1185,-3.1188,-3.1195,-3.1195,-3.1195,-3.1195,0,-3.0721,-3.0736,-3.0767,-3.0803,-3.0829,-3.0859,-3.089,-3.0905,-3.0942,-3.0966,-3.1003,-3.1027,-3.1076,-3.1113,-3.1153,-3.1176,-3.1192,-3.1196,-3.1201,-3.1192,-3.118,-3.1187,-3.1167,-3.1195,-3.1195,-3.1195,-3.1195,-3.1195,-3.0725,-3.0745,-3.0781,-3.0815,-3.0842,-3.0871,-3.0893,-3.0921,-3.0952,-3.0993,-3.101,-3.1047,-3.1084,-3.114,-3.1163,-3.1193,-3.1196,-3.1203,-3.1204,-3.1205,-3.1204,-3.1176,-3.1201,-3.1201,-3.1201,-3.1201,-3.1201,0,-3.0737,-3.0762,-3.0793,-3.0836,-3.0863,-3.0875,-3.0911,-3.0932,-3.0965,-3.0997,-3.1028,-3.107,-3.1107,-3.1142,-3.118,-3.1197,-3.1206,-3.1206,-3.1205,-3.121,-3.1199,-3.1191,-3.1199,-3.1199,-3.1199,-3.1199,-3.1199,-3.1199,-3.0747,-3.0781,-3.08,-3.0848,-3.0873,-3.091,-3.0929,-3.0956,-3.0982,-3.1028,-3.1058,-3.1081,-3.1115,-3.1156,-3.119,-3.12,-3.1212,-3.1211,-3.1222,-3.1211,-3.1211,-3.1211,-3.1203,-3.1214,-3.1214,-3.1231,-3.1231,-3.1231]},{"header":{"parameterUnit":"m.s-1","parameterCategory":1,"la1":30.2991,"la2":30.254,"lo1":-89.0895,"lo2":-89.0444,"dy":0.0017,"dx":0.0017,"nx":28,"ny":28,"refTime":"2025-04-05T21:00:00:Z","depth":0,"parameterNumber":3,"parameterNumberName":"V-component_of_WINDS"},"data":[0,0,0,0,0,0,0,0,0,0,0,0,0,0,0,0,0,0,0,0,0,0,0,0,0,0,0,0,0,0,0,0,0,0,0,0,0,0,0,0,0,0,0,0,0,0,0,0,0,0,0,0,0,0,0,0,0,0,8.9254,8.9253,0,8.9222,8.9222,8.9221,8.912,8.9118,8.9116,8.9114,8.9083,8.9084,8.9086,0,0,0,0,0,0,0,0,0,0,0,0,0,8.9229,8.923,8.9254,8.9253,8.9253,8.9222,8.9222,8.9221,8.9121,8.9118,8.9115,8.9113,8.9083,8.9084,8.9086,0,0,0,0,0,0,0,0,0,0,0,0,0,8.9223,8.9231,8.9254,8.9199,8.9194,8.9222,8.9222,8.9221,8.9121,8.9118,8.9115,8.9111,8.9082,8.9084,8.9086,8.9165,0,0,8.9092,8.9093,0,0,0,0,0,0,0,0,8.9224,8.9224,8.9207,8.9203,8.9197,8.9172,8.9202,8.9203,8.9122,8.9149,8.9114,8.911,8.9115,8.9114,8.9116,8.9164,8.9163,8.9092,8.9093,8.9094,8.9095,0,0,0,0,0,0,0,8.9224,8.9225,8.9241,8.9207,8.9201,8.9177,8.9172,8.9202,8.9152,8.9146,8.9139,8.9136,8.9112,8.9114,8.9114,8.9162,8.9092,8.9094,8.9095,8.9096,8.9276,8.9279,0,0,0,0,0,0,8.9232,8.9226,8.9242,8.924,8.9202,8.918,8.9175,8.9183,8.9151,8.9143,8.9139,8.9132,8.9113,8.9112,8.9113,8.9205,8.9094,8.9096,8.9097,8.9272,8.9277,8.9281,0,0,0,0,0,0,8.9232,8.9235,8.9243,8.9231,8.923,8.9184,8.9194,8.9184,8.9187,8.9146,8.9136,8.9151,8.911,8.911,8.9153,8.9202,8.9097,8.9098,8.9268,8.9274,8.9279,8.9389,0,0,0,0,0,0,8.9232,8.9235,8.9264,8.9233,8.9231,8.9284,8.9197,8.9186,8.919,8.918,8.9154,8.9146,8.9107,8.9151,8.9155,8.9203,8.91,8.9263,8.9271,8.9277,8.938,8.9397,8.9411,0,0,0,0,0,8.9231,8.9296,8.9266,8.9269,8.9266,8.9287,8.9286,8.9239,8.9194,8.9224,8.9198,8.9147,8.9197,8.9156,8.916,8.9209,8.926,8.9269,8.9276,8.9373,8.9394,8.9411,0,0,0,0,0,0,8.9334,8.9291,8.9257,8.9313,8.9305,8.927,8.9305,8.9262,8.9266,8.9257,8.9199,8.9194,8.9246,8.9232,8.9188,8.9285,8.922,8.923,8.9292,8.9312,8.9327,8.9329,8.9102,0,0,0,0,0,8.9364,8.9383,8.9344,8.9398,8.9395,8.9352,8.9358,8.9323,8.9312,8.9308,8.9285,8.9277,8.929,8.93,8.931,8.9378,8.9372,8.9414,8.943,8.9443,8.9451,8.9488,8.9506,8.9308,8.9307,8.9307,0,0,8.9425,8.9403,8.9419,8.9418,8.9407,8.943,8.9349,8.9375,8.9392,8.9312,8.9351,8.9335,8.9322,8.9378,8.9402,8.9368,8.9505,8.9453,8.9464,8.9465,8.9498,8.9517,8.9534,8.9313,8.9312,8.9311,0,0,8.9546,8.9532,8.9576,8.9567,8.9551,8.9522,8.9533,8.9505,8.9491,8.9529,8.947,8.949,8.9514,8.9507,8.9507,8.963,8.9584,8.9635,8.9716,8.9752,8.9768,8.9781,8.9825,8.9842,8.9644,8.9644,8.9644,0,8.9624,8.9654,8.9604,8.9635,8.9637,8.9566,8.9611,8.9605,8.9594,8.9597,8.956,8.959,8.9576,8.963,8.9661,8.9663,8.9674,8.9637,8.9769,8.9782,8.9794,8.9836,8.9853,8.965,8.965,8.9649,8.9648,0,8.9751,8.9773,8.9811,8.9802,8.9808,8.9846,8.9802,8.9815,8.9781,8.9756,8.9797,8.9778,8.9784,8.9795,8.9761,8.9845,8.9825,8.9779,8.9712,8.982,8.9859,8.9874,8.9659,8.9657,8.9655,8.9654,0,0,8.9935,8.9899,8.9914,8.991,8.9889,8.9905,8.9941,8.9947,8.9959,8.9955,8.9984,9.0007,8.9965,8.9966,8.9931,8.9963,9.0062,8.9913,8.9912,8.9942,9.0155,9.0189,9.0208,9.0032,9.0035,9.0037,9.0156,0,9.0051,9.0108,9.0065,9.013,9.0151,9.0086,9.0117,9.0108,9.0087,9.0102,9.0078,9.0096,9.0039,9.0039,9.0068,9.0044,9.0104,9.0035,9.0059,9.0061,9.0064,9.0228,9.0264,9.0377,9.0171,9.0173,9.0175,0,9.0193,9.0195,9.0263,9.0239,9.0246,9.0275,9.0278,9.0293,9.0283,9.0265,9.0266,9.0224,9.0258,9.0194,9.0241,9.0195,9.0202,9.0192,9.0196,9.0196,9.0124,9.0232,9.0411,9.0429,9.0198,9.0196,9.0194,0,9.0321,9.0341,9.0385,9.0383,9.0356,9.0378,9.0368,9.0355,9.0361,9.0364,9.0368,9.0375,9.0379,9.0386,9.0347,9.0304,9.04,9.0332,9.0387,9.0388,9.0409,9.0408,9.0592,9.0415,9.0415,9.0415,9.0414,0,9.0454,9.0499,9.0442,9.0469,9.0517,9.0468,9.0517,9.05,9.0489,9.0512,9.0457,9.048,9.0427,9.0445,9.0415,9.046,9.0462,9.0449,9.0441,9.0454,9.0456,9.0458,9.0449,9.0419,9.0418,9.0417,9.0417,0,9.0605,9.0569,9.0612,9.0584,9.0578,9.0615,9.0591,9.0615,9.0591,9.0621,9.0625,9.0587,9.0606,9.0568,9.0582,9.0562,9.0624,9.0603,9.0628,9.0621,9.0679,9.0674,9.087,9.0893,9.0702,9.0704,9.0705,0,9.0692,9.0725,9.0701,9.0712,9.0706,9.0725,9.0732,9.0685,9.0695,9.0687,9.0713,9.0727,9.0735,9.0769,9.0743,9.0753,9.0732,9.08,9.0733,9.0746,9.0733,9.0732,9.0735,9.0814,9.0816,9.0818,9.0819,0,9.0852,9.0833,9.0844,9.0851,9.0861,9.0864,9.0863,9.0876,9.0826,9.0841,9.0859,9.0866,9.088,9.0895,9.09,9.0891,9.0848,9.0841,9.0854,9.0868,9.0881,9.0875,9.0665,9.0836,9.0835,9.0833,9.0833,9.0832,9.0973,9.1,9.0987,9.1003,9.0998,9.0998,9.102,9.0999,9.1013,9.1021,9.0993,9.1019,9.1009,9.1011,9.1007,9.1026,9.0996,9.1015,9.102,9.1026,9.1035,9.0878,9.1027,9.1027,9.1026,9.1026,9.1025,0,9.113,9.1119,9.1134,9.1135,9.1148,9.1106,9.1104,9.1117,9.114,9.1135,9.1145,9.1167,9.1182,9.1158,9.1169,9.119,9.117,9.1194,9.1192,9.1191,9.1061,9.1049,9.121,9.121,9.121,9.121,9.121,9.121,9.1213,9.1256,9.1236,9.1276,9.1265,9.1289,9.1292,9.1293,9.1288,9.1315,9.1328,9.1312,9.13,9.131,9.1322,9.1315,9.1321,9.1352,9.1338,9.1218,9.12,9.1182,9.117,9.1354,9.1355,9.1466,9.1467,9.1468]}]]